Fort Campbell, KY

7:27 PM CDT on May 26, 2018 (GMT -0500)
Campbell Army Air Field

Weather History for KHOP - January, 2013

Change the Weather History Date:

Tuesday, January 22, 2013

  Actual Average Record
Temperature  
Mean Temperature 20 °F -  
Max Temperature 25 °F 43 °F 68 °F (1999)
Min Temperature 16 °F 25 °F 12 °F (2003)
Degree Days  
Heating Degree Days 44    
Moisture  
Dew Point 2 °F    
Average Humidity 43    
Maximum Humidity 65    
Minimum Humidity 32    
Precipitation  
Precipitation 0.00 in - - ()
Sea Level Pressure  
Sea Level Pressure 30.41 in    
Wind  
Wind Speed 7 mph (North)    
Max Wind Speed 12 mph    
Max Gust Speed -    
Visibility 10 miles    
Events      
Averages and records for this station are not official NWS values.
T = Trace of Precipitation, MM = Missing Value Source: NWS Daily Summary

Daily Weather History Graph

Daily Weather History Graph

Search for Another Location

Airport or City:

Astronomy

Jan. 22, 2013 Rise Set
Actual Time 6:58 AM CST 5:05 PM CST
Civil Twilight 6:30 AM CST 5:33 PM CST
Nautical Twilight 5:59 AM CST 6:04 PM CST
Astronomical Twilight 5:28 AM CST 6:35 PM CST
Moon 1:29 PM CST (1/22) 3:18 AM CST (1/22)
Length of Visible Light 11h 02m
Length of Day
10h 06m
Waxing Gibbous, 83% of the Moon is Illuminated
Jan 22
Waxing Gibbous
Jan 26
Full
Feb 3
Last Quarter
Feb 10
New
Feb 17
First Quarter

Hourly Weather History & Observations

Time (CST) Temp. Windchill Dew Point Humidity Pressure Visibility Wind Dir Wind Speed Gust Speed Precip Events Conditions
12:55 AM 22.5 °F 11.1 °F 5.9 °F 49% 30.35 in 10.0 mi NNW 11.5 mph - N/A   Overcast
1:55 AM 21.2 °F 13.6 °F 4.3 °F 48% 30.37 in 10.0 mi NNW 5.8 mph - N/A   Partly Cloudy
2:55 AM 19.9 °F 11.1 °F 0.7 °F 43% 30.37 in 10.0 mi North 6.9 mph - N/A   Mostly Cloudy
3:55 AM 18.5 °F 10.4 °F 2.8 °F 51% 30.38 in 10.0 mi North 5.8 mph - N/A   Scattered Clouds
4:55 AM 16.7 °F 7.2 °F 5.4 °F 61% 30.38 in 10.0 mi North 6.9 mph - N/A   Clear
5:55 AM 16.9 °F 7.4 °F 7.0 °F 65% 30.41 in 10.0 mi NNE 6.9 mph - N/A   Overcast
6:55 AM 17.6 °F 6.4 °F 2.8 °F 53% 30.44 in 10.0 mi North 9.2 mph - N/A   Overcast
7:55 AM 18.1 °F 7.9 °F 3.6 °F 53% 30.45 in 10.0 mi NNE 8.1 mph - N/A   Overcast
8:55 AM 19.2 °F 8.4 °F 0.5 °F 44% 30.46 in 10.0 mi North 9.2 mph - N/A   Scattered Clouds
9:55 AM 21.2 °F 14.9 °F -2.2 °F 36% 30.48 in 10.0 mi Variable 4.6 mph - N/A   Partly Cloudy
10:55 AM 21.9 °F 15.7 °F -2.2 °F 35% 30.48 in 10.0 mi Variable 4.6 mph - N/A   Overcast
11:55 AM 23.5 °F 17.6 °F 0.1 °F 36% 30.45 in 10.0 mi NNW 4.6 mph - N/A   Overcast
12:55 PM 24.3 °F 16.3 °F -0.0 °F 35% 30.43 in 10.0 mi NW 6.9 mph - N/A   Overcast
1:55 PM 24.8 °F 20.5 °F 0.3 °F 35% 30.41 in 10.0 mi NW 3.5 mph - N/A   Overcast
2:55 PM 25.5 °F - 0.1 °F 33% 30.42 in 10.0 mi Calm Calm - N/A   Mostly Cloudy
3:55 PM 25.3 °F 19.7 °F -0.9 °F 32% 30.41 in 10.0 mi Variable 4.6 mph - N/A   Overcast
4:55 PM 25.0 °F 19.3 °F -1.1 °F 32% 30.42 in 10.0 mi NNW 4.6 mph - N/A   Overcast
5:55 PM 24.8 °F 20.5 °F -0.4 °F 34% 30.41 in 10.0 mi NNW 3.5 mph - N/A   Overcast
6:55 PM 24.8 °F 20.5 °F -0.2 °F 34% 30.40 in 10.0 mi NW 3.5 mph - N/A   Overcast
7:55 PM 24.6 °F 20.3 °F 0.5 °F 35% 30.40 in 10.0 mi NNW 3.5 mph - N/A   Overcast
8:55 PM 24.8 °F - 2.7 °F 39% 30.40 in 10.0 mi Calm Calm - N/A   Overcast
9:55 PM 24.8 °F 19.1 °F 2.7 °F 39% 30.40 in 10.0 mi NNE 4.6 mph - N/A   Overcast
10:55 PM 23.9 °F 18.0 °F 5.5 °F 46% 30.41 in 10.0 mi NE 4.6 mph - N/A   Overcast
11:55 PM 22.3 °F 17.6 °F 8.1 °F 54% 30.40 in 10.0 mi NE 3.5 mph - N/A   Clear